Location: D�derode
(51.8092°N, 10.1065°E)
Time: 07:04:59
(UTC+00:00)

SAR-Lupe-4 - Pass Details

Date: 01 December 2020
Orbit: 481 x 484 km, 98.2° (Epoch: 09 January)

Event Time Altitude Azimuth Distance (km) Brightness Sun altitude
Exits shadow 17:29:13 38° 152° (SSE) 752 4.3 -20.2°
Drops below altitude 10° 17:31:44 10° 179° (S) 1,665 6.4 -20.5°
Sets 17:33:49 0° 185° (S) 2,541 7.4 -20.9°
